QPF
0.05 0.08 0.12 0.16 0.15 0.14 0.12 0.10 0.08 0.07 0.06 0.05 0.04 0.04 0.03 0.03 0.03 0.03 0.04 0.04 0.03 0.04 0.04 0.03 0.03 0.03 0.03 0.04 0.05 0.06 0.06 0.04 0.03 0.02 0.02 0.01 0.00 0.00 0.00 0.00 0.00 0.00 0.00
0.04 0.06 0.13 0.23 0.25 0.22 0.17 0.15 0.12 0.13 0.14 0.10 0.09 0.07 0.06 0.06 0.08 0.09 0.09 0.08 0.07 0.06 0.06 0.06 0.04 0.03 0.02 0.02 0.02 0.03 0.04 0.03 0.02 0.02 0.01 0.01 0.00 0.00 0.00 0.00 0.00 0.00 0.00
0.04 0.05 0.12 0.20 0.29 0.28 0.27 0.25 0.19 0.20 0.18 0.14 0.13 0.11 0.11 0.12 0.13 0.13 0.13 0.13 0.12 0.09 0.08 0.07 0.05 0.03 0.02 0.01 0.01 0.01 0.01 0.02 0.01 0.01 0.01 0.01 0.00 0.00 0.00 0.00 0.00 0.00 0.00
0.02 0.03 0.06 0.12 0.19 0.27 0.31 0.29 0.28 0.27 0.21 0.20 0.24 0.22 0.19 0.17 0.17 0.18 0.17 0.16 0.15 0.12 0.10 0.09 0.05 0.03 0.02 0.01 0.01 0.01 0.01 0.01 0.01 0.01 0.01 0.00 0.00 0.00 0.00 0.00 0.00 0.00 0.00
0.01 0.03 0.04 0.05 0.10 0.20 0.22 0.20 0.23 0.26 0.31 0.37 0.34 0.27 0.24 0.22 0.21 0.23 0.21 0.19 0.17 0.14 0.12 0.08 0.05 0.02 0.01 0.01 0.00 0.00 0.00 0.00 0.00 0.00 0.00 0.00 0.00 0.00 0.00 0.00 0.00 0.00 0.00
0.01 0.02 0.02 0.03 0.08 0.13 0.16 0.19 0.23 0.31 0.35 0.35 0.34 0.33 0.31 0.29 0.29 0.26 0.22 0.19 0.15 0.12 0.09 0.06 0.03 0.02 0.01 0.00 0.00 0.00 0.00 0.00 0.00 0.00 0.00 0.00 0.00 0.00 0.00 0.00 0.00 0.00 0.00
0.02 0.02 0.02 0.04 0.06 0.09 0.15 0.22 0.22 0.24 0.26 0.29 0.29 0.27 0.25 0.27 0.28 0.27 0.24 0.20 0.15 0.09 0.06 0.04 0.02 0.01 0.00 0.00 0.00 0.00 0.00 0.00 0.00 0.00 0.00 0.00 0.00 0.00 0.00 0.00 0.00 0.00 0.00
0.03 0.03 0.03 0.04 0.04 0.05 0.07 0.13 0.15 0.16 0.17 0.19 0.23 0.23 0.23 0.23 0.25 0.23 0.19 0.14 0.09 0.06 0.04 0.02 0.01 0.00 0.00 0.00 0.00 0.00 0.00 0.00 0.00 0.00 0.00 0.00 0.00 0.00 0.00 0.00 0.00 0.00 0.00
0.03 0.02 0.02 0.03 0.03 0.03 0.04 0.06 0.08 0.09 0.12 0.15 0.17 0.18 0.20 0.21 0.21 0.17 0.13 0.09 0.06 0.03 0.01 0.01 0.00 0.00 0.00 0.00 0.00 0.00 0.00 0.00 0.00 0.00 0.00 0.00 0.00 0.00 0.00 0.00 0.00 0.00 0.00
0.03 0.03 0.03 0.02 0.03 0.03 0.03 0.04 0.05 0.07 0.09 0.12 0.13 0.13 0.15 0.15 0.13 0.11 0.09 0.05 0.03 0.01 0.01 0.01 0.00 0.00 0.00 0.00 0.00 0.00 0.00 0.00 0.00 0.00 0.00 0.00 0.00 0.00 0.00 0.00 0.00 0.00 0.00
0.02 0.03 0.03 0.03 0.03 0.02 0.02 0.03 0.04 0.06 0.08 0.09 0.09 0.09 0.10 0.09 0.07 0.05 0.03 0.02 0.02 0.01 0.02 0.01 0.01 0.00 0.00 0.00 0.00 0.00 0.00 0.00 0.00 0.00 0.00 0.00 0.00 0.00 0.00 0.00 0.00 0.00 0.00
0.02 0.02 0.02 0.02 0.03 0.02 0.02 0.03 0.03 0.04 0.05 0.05 0.05 0.05 0.05 0.04 0.04 0.03 0.02 0.02 0.02 0.02 0.01 0.01 0.01 0.01 0.01 0.01 0.01 0.00 0.00 0.00 0.00 0.00 0.00 0.00 0.00 0.00 0.00 0.00 0.00 0.00 0.00
0.04 0.04 0.03 0.03 0.03 0.03 0.02 0.02 0.03 0.03 0.03 0.03 0.03 0.03 0.03 0.02 0.03 0.03 0.03 0.03 0.03 0.02 0.02 0.01 0.01 0.01 0.01 0.01 0.00 0.00 0.00 0.00 0.00 0.00 0.00 0.00 0.00 0.00 0.00 0.00 0.00 0.00 0.00
0.08 0.07 0.07 0.06 0.04 0.03 0.04 0.04 0.04 0.04 0.04 0.03 0.03 0.03 0.03 0.03 0.03 0.03 0.03 0.02 0.02 0.02 0.02 0.01 0.01 0.01 0.00 0.00 0.00 0.00 0.00 0.00 0.00 0.00 0.00 0.00 0.00 0.00 0.00 0.00 0.00 0.00 0.00
0.13 0.10 0.09 0.09 0.09 0.09 0.09 0.09 0.08 0.08 0.07 0.06 0.05 0.04 0.03 0.03 0.03 0.03 0.02 0.02 0.01 0.01 0.01 0.01 0.00 0.00 0.00 0.00 0.00 0.00 0.00 0.00 0.00 0.00 0.00 0.00 0.00 0.00 0.00 0.00 0.00 0.00 0.00
0.21 0.17 0.15 0.16 0.17 0.17 0.17 0.16 0.15 0.13 0.11 0.09 0.07 0.06 0.05 0.04 0.03 0.02 0.01 0.01 0.01 0.01 0.01 0.00 0.00 0.00 0.00 0.00 0.00 0.00 0.00 0.00 0.00 0.00 0.00 0.00 0.00 0.00 0.00 0.00 0.00 0.00 0.00
0.26 0.24 0.21 0.20 0.22 0.23 0.23 0.22 0.20 0.17 0.14 0.12 0.10 0.07 0.05 0.04 0.02 0.01 0.01 0.01 0.01 0.01 0.00 0.00 0.00 0.00 0.00 0.00 0.00 0.00 0.00 0.00 0.00 0.00 0.00 0.00 0.00 0.00 0.00 0.00 0.00 0.00 0.00
0.23 0.23 0.23 0.24 0.25 0.24 0.22 0.20 0.16 0.13 0.10 0.08 0.06 0.05 0.04 0.03 0.02 0.02 0.01 0.01 0.01 0.01 0.00 0.00 0.00 0.00 0.00 0.00 0.00 0.00 0.00 0.00 0.00 0.00 0.00 0.00 0.00 0.00 0.00 0.00 0.00 0.00 0.00
0.23 0.21 0.21 0.22 0.21 0.18 0.13 0.08 0.05 0.04 0.03 0.02 0.02 0.02 0.02 0.01 0.01 0.01 0.01 0.01 0.00 0.00 0.00 0.00 0.00 0.00 0.00 0.00 0.00 0.00 0.00 0.00 0.00 0.00 0.00 0.00 0.00 0.00 0.00 0.00 0.00 0.00 0.00
0.13 0.12 0.11 0.10 0.08 0.07 0.05 0.04 0.03 0.02 0.01 0.01 0.01 0.01 0.00 0.00 0.00 0.01 0.00 0.00 0.00 0.00 0.00 0.00 0.00 0.00 0.00 0.00 0.00 0.00 0.00 0.00 0.00 0.00 0.00 0.00 0.00 0.00 0.00 0.00 0.00 0.00 0.00
0.05 0.04 0.05 0.05 0.04 0.04 0.03 0.03 0.02 0.01 0.01 0.00 0.00 0.00 0.00 0.00 0.00 0.00 0.00 0.00 0.00 0.00 0.00 0.00 0.00 0.00 0.00 0.00 0.00 0.00 0.00 0.00 0.00 0.00 0.00 0.00 0.00 0.00 0.00 0.00 0.00 0.00 0.00
0.01 0.01 0.02 0.01 0.01 0.01 0.01 0.01 0.00 0.00 0.00 0.00 0.00 0.00 0.00 0.00 0.00 0.00 0.00 0.00 0.00 0.00 0.00 0.00 0.00 0.00 0.00 0.00 0.00 0.00 0.00 0.00 0.00 0.00 0.00 0.00 0.00 0.00 0.00 0.00 0.00 0.00 0.00
0.00 0.00 0.00 0.00 0.00 0.00 0.00 0.00 0.00 0.00 0.01 0.01 0.01 0.00 0.00 0.00 0.00 0.00 0.00 0.00 0.00 0.00 0.00 0.00 0.00 0.00 0.00 0.00 0.00 0.00 0.00 0.00 0.00 0.00 0.00 0.00 0.00 0.00 0.00 0.00 0.00 0.01 0.01
0.00 0.00 0.00 0.00 0.01 0.01 0.01 0.01 0.01 0.02 0.03 0.03 0.02 0.01 0.01 0.01 0.01 0.01 0.00 0.00 0.00 0.00 0.00 0.00 0.00 0.00 0.00 0.00 0.00 0.00 0.00 0.00 0.00 0.00 0.00 0.00 0.00 0.00 0.00 0.01 0.01 0.02 0.02
0.01 0.01 0.01 0.01 0.01 0.01 0.01 0.02 0.02 0.03 0.04 0.03 0.02 0.01 0.01 0.02 0.01 0.01 0.01 0.00 0.00 0.00 0.00 0.00 0.00 0.00 0.00 0.00 0.00 0.00 0.00 0.00 0.00 0.00 0.00 0.00 0.00 0.00 0.01 0.01 0.01 0.02 0.02
0.01 0.01 0.01 0.01 0.01 0.00 0.01 0.01 0.02 0.02 0.01 0.01 0.01 0.01 0.01 0.01 0.02 0.02 0.02 0.01 0.00 0.00 0.00 0.00 0.00 0.00 0.00 0.00 0.00 0.00 0.00 0.00 0.00 0.00 0.00 0.01 0.01 0.01 0.01 0.01 0.01 0.01 0.01
MSLP
1007.86 1008.44 1008.96 1009.37 1009.68 1009.91 1010.11 1010.36 1010.72 1011.22 1011.85 1012.57 1013.33 1014.07 1014.70 1015.21 1015.56 1015.80 1015.96 1016.11 1016.31 1016.58 1016.96 1017.43 1017.95 1018.47 1018.96 1019.37 1019.69 1019.92 1020.08 1020.20 1020.30 1020.42 1020.57 1020.75 1020.94 1021.12 1021.28 1021.40 1021.47 1021.51 1021.52
1007.97 1008.49 1008.94 1009.27 1009.48 1009.63 1009.77 1009.99 1010.36 1010.91 1011.62 1012.45 1013.33 1014.17 1014.91 1015.49 1015.89 1016.15 1016.32 1016.47 1016.65 1016.91 1017.28 1017.74 1018.25 1018.77 1019.26 1019.66 1019.98 1020.20 1020.35 1020.46 1020.56 1020.68 1020.82 1020.99 1021.17 1021.33 1021.47 1021.56 1021.59 1021.59 1021.55
1008.24 1008.68 1009.02 1009.24 1009.34 1009.39 1009.46 1009.64 1010.00 1010.57 1011.34 1012.25 1013.22 1014.16 1014.99 1015.65 1016.12 1016.44 1016.65 1016.82 1017.01 1017.28 1017.64 1018.09 1018.58 1019.08 1019.54 1019.93 1020.23 1020.44 1020.59 1020.70 1020.82 1020.96 1021.12 1021.31 1021.49 1021.66 1021.79 1021.85 1021.86 1021.82 1021.75
1008.70 1009.03 1009.27 1009.37 1009.36 1009.30 1009.28 1009.40 1009.72 1010.29 1011.07 1012.02 1013.04 1014.05 1014.94 1015.68 1016.23 1016.61 1016.89 1017.11 1017.35 1017.64 1018.00 1018.44 1018.92 1019.39 1019.82 1020.18 1020.46 1020.67 1020.83 1020.97 1021.13 1021.31 1021.51 1021.74 1021.95 1022.13 1022.26 1022.32 1022.31 1022.24 1022.13
1009.37 1009.60 1009.73 1009.71 1009.59 1009.43 1009.33 1009.36 1009.63 1010.14 1010.90 1011.83 1012.85 1013.87 1014.81 1015.59 1016.21 1016.67 1017.02 1017.31 1017.61 1017.94 1018.33 1018.78 1019.24 1019.69 1020.10 1020.44 1020.71 1020.93 1021.11 1021.30 1021.50 1021.73 1022.00 1022.27 1022.52 1022.73 1022.86 1022.92 1022.90 1022.81 1022.68
1010.22 1010.37 1010.41 1010.30 1010.09 1009.85 1009.65 1009.61 1009.80 1010.23 1010.91 1011.77 1012.74 1013.73 1014.65 1015.45 1016.10 1016.63 1017.05 1017.43 1017.80 1018.19 1018.63 1019.09 1019.56 1020.00 1020.39 1020.73 1021.00 1021.23 1021.45 1021.67 1021.93 1022.22 1022.53 1022.85 1023.14 1023.37 1023.53 1023.58 1023.56 1023.45 1023.30
1011.20 1011.30 1011.28 1011.12 1010.85 1010.55 1010.29 1010.18 1010.28 1010.61 1011.18 1011.94 1012.81 1013.71 1014.57 1015.35 1016.01 1016.57 1017.06 1017.50 1017.95 1018.41 1018.90 1019.40 1019.88 1020.33 1020.72 1021.06 1021.34 1021.59 1021.83 1022.10 1022.39 1022.73 1023.08 1023.42 1023.74 1023.98 1024.14 1024.20 1024.17 1024.07 1023.90
1012.23 1012.33 1012.29 1012.11 1011.82 1011.49 1011.21 1011.04 1011.07 1011.31 1011.77 1012.39 1013.13 1013.91 1014.67 1015.38 1016.02 1016.59 1017.11 1017.62 1018.13 1018.66 1019.20 1019.73 1020.25 1020.71 1021.11 1021.45 1021.74 1022.00 1022.26 1022.54 1022.85 1023.20 1023.56 1023.91 1024.22 1024.47 1024.63 1024.69 1024.65 1024.55 1024.38
1013.25 1013.36 1013.34 1013.18 1012.92 1012.61 1012.33 1012.15 1012.14 1012.31 1012.65 1013.15 1013.75 1014.39 1015.04 1015.66 1016.24 1016.79 1017.32 1017.86 1018.42 1019.00 1019.58 1020.16 1020.69 1021.17 1021.57 1021.91 1022.20 1022.45 1022.71 1022.98 1023.28 1023.61 1023.94 1024.27 1024.55 1024.78 1024.92 1024.97 1024.93 1024.83 1024.67
1014.21 1014.35 1014.37 1014.26 1014.05 1013.80 1013.57 1013.42 1013.40 1013.53 1013.81 1014.20 1014.67 1015.18 1015.71 1016.23 1016.73 1017.24 1017.76 1018.30 1018.88 1019.49 1020.10 1020.69 1021.24 1021.72 1022.13 1022.45 1022.72 1022.96 1023.17 1023.41 1023.66 1023.93 1024.21 1024.48 1024.71 1024.89 1025.00 1025.04 1025.00 1024.90 1024.75
1015.09 1015.26 1015.32 1015.27 1015.14 1014.97 1014.83 1014.75 1014.77 1014.91 1015.15 1015.48 1015.86 1016.27 1016.68 1017.10 1017.52 1017.97 1018.45 1018.97 1019.55 1020.16 1020.77 1021.37 1021.91 1022.38 1022.77 1023.07 1023.30 1023.49 1023.65 1023.82 1023.99 1024.18 1024.38 1024.57 1024.73 1024.85 1024.92 1024.93 1024.89 1024.79 1024.65
1015.91 1016.09 1016.18 1016.18 1016.13 1016.06 1016.02 1016.04 1016.14 1016.33 1016.58 1016.89 1017.21 1017.55 1017.88 1018.21 1018.56 1018.93 1019.37 1019.85 1020.40 1020.98 1021.58 1022.15 1022.67 1023.11 1023.46 1023.72 1023.91 1024.03 1024.13 1024.21 1024.30 1024.39 1024.49 1024.58 1024.66 1024.71 1024.73 1024.72 1024.66 1024.56 1024.42
1016.69 1016.86 1016.96 1017.00 1017.02 1017.04 1017.11 1017.24 1017.44 1017.70 1018.00 1018.32 1018.63 1018.92 1019.20 1019.46 1019.74 1020.06 1020.43 1020.86 1021.36 1021.90 1022.45 1022.99 1023.46 1023.86 1024.17 1024.38 1024.51 1024.57 1024.59 1024.59 1024.59 1024.58 1024.58 1024.58 1024.57 1024.55 1024.52 1024.46 1024.38 1024.27 1024.13
1017.45 1017.60 1017.69 1017.75 1017.81 1017.92 1018.08 1018.32 1018.62 1018.97 1019.33 1019.68 1020.00 1020.27 1020.51 1020.73 1020.95 1021.21 1021.53 1021.90 1022.34 1022.82 1023.32 1023.80 1024.22 1024.57 1024.82 1024.98 1025.06 1025.06 1025.02 1024.95 1024.86 1024.77 1024.68 1024.59 1024.50 1024.41 1024.31 1024.21 1024.09 1023.96 1023.80
1018.23 1018.33 1018.39 1018.45 1018.55 1018.71 1018.95 1019.28 1019.67 1020.09 1020.51 1020.90 1021.23 1021.50 1021.71 1021.89 1022.07 1022.28 1022.54 1022.86 1023.24 1023.65 1024.09 1024.50 1024.87 1025.16 1025.37 1025.48 1025.51 1025.48 1025.39 1025.26 1025.12 1024.96 1024.80 1024.63 1024.46 1024.29 1024.13 1023.97 1023.81 1023.64 1023.44
1019.02 1019.06 1019.09 1019.15 1019.26 1019.46 1019.76 1020.15 1020.60 1021.07 1021.52 1021.93 1022.26 1022.52 1022.71 1022.87 1023.01 1023.17 1023.38 1023.64 1023.96 1024.32 1024.69 1025.05 1025.36 1025.60 1025.77 1025.85 1025.85 1025.79 1025.68 1025.52 1025.34 1025.13 1024.91 1024.68 1024.44 1024.20 1023.96 1023.73 1023.51 1023.28 1023.05
1019.81 1019.82 1019.83 1019.87 1019.99 1020.21 1020.54 1020.95 1021.43 1021.91 1022.37 1022.77 1023.09 1023.32 1023.49 1023.61 1023.71 1023.84 1024.01 1024.22 1024.49 1024.80 1025.12 1025.42 1025.68 1025.89 1026.02 1026.08 1026.07 1026.00 1025.87 1025.70 1025.50 1025.26 1025.00 1024.71 1024.41 1024.09 1023.78 1023.47 1023.17 1022.88 1022.60
1020.60 1020.59 1020.59 1020.64 1020.77 1021.00 1021.33 1021.74 1022.20 1022.66 1023.09 1023.45 1023.72 1023.91 1024.04 1024.12 1024.20 1024.29 1024.43 1024.61 1024.84 1025.11 1025.38 1025.64 1025.86 1026.04 1026.15 1026.19 1026.18 1026.11 1025.98 1025.81 1025.60 1025.34 1025.04 1024.70 1024.33 1023.94 1023.55 1023.15 1022.78 1022.42 1022.08
1021.36 1021.37 1021.38 1021.44 1021.58 1021.81 1022.13 1022.52 1022.93 1023.34 1023.71 1024.00 1024.21 1024.34 1024.42 1024.47 1024.51 1024.58 1024.70 1024.86 1025.07 1025.30 1025.54 1025.77 1025.97 1026.11 1026.21 1026.24 1026.22 1026.15 1026.03 1025.86 1025.63 1025.35 1025.02 1024.63 1024.20 1023.73 1023.25 1022.78 1022.33 1021.90 1021.51
1022.10 1022.13 1022.18 1022.26 1022.41 1022.64 1022.93 1023.28 1023.63 1023.97 1024.25 1024.45 1024.59 1024.66 1024.69 1024.71 1024.73 1024.79 1024.90 1025.05 1025.25 1025.47 1025.69 1025.89 1026.06 1026.18 1026.25 1026.27 1026.24 1026.17 1026.04 1025.85 1025.61 1025.30 1024.93 1024.49 1024.00 1023.47 1022.91 1022.37 1021.85 1021.37 1020.94
1022.78 1022.86 1022.93 1023.05 1023.21 1023.43 1023.69 1023.98 1024.27 1024.52 1024.71 1024.84 1024.90 1024.91 1024.91 1024.90 1024.92 1024.98 1025.09 1025.25 1025.45 1025.66 1025.87 1026.05 1026.20 1026.29 1026.33 1026.33 1026.27 1026.17 1026.02 1025.81 1025.55 1025.21 1024.79 1024.30 1023.76 1023.16 1022.55 1021.95 1021.38 1020.87 1020.42
1023.39 1023.50 1023.61 1023.75 1023.92 1024.12 1024.35 1024.59 1024.80 1024.97 1025.08 1025.13 1025.14 1025.11 1025.08 1025.07 1025.10 1025.18 1025.32 1025.50 1025.71 1025.92 1026.12 1026.28 1026.40 1026.45 1026.46 1026.42 1026.33 1026.19 1026.00 1025.75 1025.44 1025.06 1024.61 1024.08 1023.49 1022.85 1022.20 1021.57 1020.97 1020.45 1020.01
1023.90 1024.04 1024.16 1024.30 1024.47 1024.65 1024.85 1025.03 1025.17 1025.28 1025.33 1025.33 1025.30 1025.25 1025.22 1025.23 1025.29 1025.40 1025.57 1025.78 1026.00 1026.22 1026.41 1026.55 1026.63 1026.65 1026.62 1026.52 1026.38 1026.19 1025.95 1025.66 1025.31 1024.89 1024.39 1023.83 1023.21 1022.56 1021.89 1021.25 1020.66 1020.14 1019.72
1024.28 1024.42 1024.54 1024.68 1024.83 1024.98 1025.13 1025.26 1025.36 1025.41 1025.42 1025.39 1025.35 1025.31 1025.30 1025.35 1025.45 1025.60 1025.81 1026.05 1026.29 1026.52 1026.70 1026.82 1026.86 1026.84 1026.75 1026.60 1026.41 1026.16 1025.87 1025.53 1025.13 1024.68 1024.16 1023.58 1022.95 1022.30 1021.65 1021.02 1020.45 1019.96 1019.56
1024.52 1024.63 1024.74 1024.85 1024.97 1025.09 1025.20 1025.28 1025.34 1025.36 1025.35 1025.32 1025.29 1025.28 1025.31 1025.39 1025.54 1025.75 1025.99 1026.26 1026.52 1026.75 1026.92 1027.01 1027.02 1026.96 1026.82 1026.62 1026.37 1026.07 1025.73 1025.35 1024.92 1024.44 1023.91 1023.34 1022.73 1022.10 1021.48 1020.89 1020.36 1019.90 1019.53
1024.61 1024.69 1024.77 1024.84 1024.92 1025.00 1025.07 1025.12 1025.14 1025.15 1025.13 1025.12 1025.11 1025.14 1025.21 1025.35 1025.55 1025.79 1026.07 1026.36 1026.63 1026.86 1027.01 1027.09 1027.07 1026.97 1026.79 1026.54 1026.25 1025.91 1025.54 1025.13 1024.69 1024.21 1023.69 1023.13 1022.56 1021.97 1021.40 1020.85 1020.36 1019.94 1019.58
Thickness
5793 5797 5800 5800 5795 5788 5784 5786 5783 5780 5775 5769 5763 5757 5751 5748 5745 5742 5739 5735 5731 5727 5723 5718 5713 5709 5704 5699 5695 5690 5684 5679 5677 5672 5666 5665 5664 5661 5658 5654 5651 5648 5646
5786 5791 5794 5795 5793 5788 5785 5781 5778 5777 5774 5770 5763 5755 5747 5740 5736 5733 5729 5726 5722 5719 5715 5711 5705 5701 5696 5692 5688 5685 5678 5673 5670 5666 5660 5655 5653 5653 5652 5648 5645 5641 5639
5782 5784 5786 5789 5788 5787 5786 5781 5776 5774 5770 5764 5756 5747 5739 5732 5726 5721 5717 5714 5712 5709 5705 5702 5697 5693 5689 5684 5680 5677 5673 5666 5662 5660 5655 5648 5644 5641 5641 5639 5636 5633 5630
5773 5777 5780 5781 5782 5783 5782 5778 5772 5769 5764 5760 5753 5744 5735 5726 5720 5714 5708 5704 5701 5699 5695 5691 5687 5683 5679 5676 5673 5669 5666 5661 5655 5651 5648 5643 5639 5633 5628 5627 5625 5623 5619
5762 5766 5770 5773 5776 5778 5776 5771 5767 5761 5757 5753 5746 5738 5728 5720 5713 5706 5699 5694 5690 5687 5683 5680 5677 5672 5669 5666 5663 5659 5656 5652 5647 5642 5638 5634 5628 5624 5619 5614 5610 5608 5605
5748 5754 5758 5763 5765 5767 5766 5762 5756 5750 5746 5742 5735 5728 5720 5712 5704 5697 5689 5683 5679 5675 5672 5669 5665 5661 5658 5655 5651 5648 5644 5640 5636 5631 5627 5622 5617 5612 5607 5601 5596 5592 5590
5733 5739 5743 5746 5747 5749 5750 5748 5744 5738 5734 5729 5723 5717 5711 5703 5696 5688 5680 5674 5669 5664 5660 5658 5654 5650 5646 5643 5639 5635 5631 5627 5623 5618 5613 5609 5604 5599 5594 5587 5580 5576 5573
5719 5722 5726 5729 5731 5733 5734 5733 5729 5724 5720 5716 5710 5704 5698 5691 5683 5676 5670 5664 5658 5653 5650 5646 5641 5637 5634 5630 5626 5622 5617 5613 5609 5604 5599 5594 5588 5585 5579 5573 5566 5559 5554
5703 5706 5709 5711 5713 5714 5714 5715 5712 5708 5704 5700 5695 5690 5684 5678 5670 5664 5658 5652 5646 5642 5637 5633 5628 5625 5621 5617 5613 5607 5602 5598 5594 5589 5584 5578 5573 5568 5563 5557 5551 5544 5537
5686 5688 5691 5693 5694 5695 5695 5695 5694 5691 5687 5683 5679 5673 5667 5662 5656 5651 5645 5639 5634 5629 5624 5619 5614 5610 5606 5602 5597 5592 5587 5582 5577 5573 5568 5562 5557 5552 5547 5541 5535 5529 5522
5670 5671 5672 5673 5675 5676 5677 5676 5674 5671 5667 5663 5660 5655 5650 5645 5641 5636 5630 5625 5619 5614 5609 5605 5600 5595 5590 5585 5580 5575 5571 5566 5561 5557 5552 5547 5542 5537 5531 5526 5520 5513 5507
5654 5655 5656 5656 5657 5657 5657 5656 5655 5653 5649 5646 5642 5637 5632 5628 5623 5618 5613 5608 5603 5599 5594 5589 5583 5577 5571 5567 5562 5558 5554 5549 5545 5541 5537 5532 5528 5523 5517 5512 5506 5499 5493
5640 5641 5641 5639 5638 5639 5638 5637 5636 5634 5631 5628 5624 5619 5614 5610 5605 5600 5595 5591 5587 5582 5577 5571 5564 5558 5553 5549 5545 5541 5536 5533 5529 5526 5522 5518 5514 5509 5504 5498 5492 5486 5481
5627 5626 5626 5624 5622 5622 5620 5619 5617 5615 5612 5610 5605 5601 5596 5591 5586 5582 5578 5574 5569 5564 5558 5551 5545 5540 5536 5531 5528 5524 5520 5517 5514 5511 5508 5505 5501 5496 5491 5485 5479 5473 5467
5613 5611 5611 5610 5608 5606 5604 5602 5599 5596 5593 5590 5586 5582 5577 5573 5569 5564 5560 5556 5551 5545 5539 5533 5527 5523 5519 5514 5511 5508 5505 5501 5499 5497 5494 5492 5490 5486 5480 5475 5468 5462 5456
5597 5597 5596 5595 5593 5590 5588 5586 5583 5579 5575 5571 5566 5562 5559 5555 5551 5546 5542 5537 5533 5527 5522 5516 5510 5506 5502 5497 5495 5492 5489 5486 5484 5482 5481 5479 5476 5472 5468 5464 5459 5455 5450
5583 5582 5580 5579 5578 5576 5573 5571 5567 5563 5559 5554 5549 5545 5541 5537 5533 5529 5524 5519 5514 5509 5504 5498 5493 5489 5485 5482 5480 5478 5475 5472 5470 5468 5467 5466 5464 5460 5456 5452 5449 5446 5444
5569 5566 5563 5562 5560 5558 5557 5554 5551 5546 5542 5537 5533 5528 5524 5520 5515 5512 5507 5502 5497 5493 5487 5482 5478 5474 5471 5467 5465 5463 5460 5458 5457 5455 5455 5453 5452 5450 5446 5443 5441 5440 5440
5555 5552 5550 5548 5546 5543 5540 5538 5534 5530 5526 5522 5518 5513 5509 5504 5499 5494 5490 5486 5482 5477 5473 5468 5463 5459 5456 5453 5450 5448 5445 5443 5443 5443 5444 5443 5442 5441 5439 5436 5434 5435 5438
5543 5541 5538 5536 5532 5529 5526 5523 5519 5515 5511 5507 5503 5498 5493 5488 5484 5479 5474 5470 5466 5462 5459 5454 5450 5446 5442 5440 5437 5434 5432 5429 5430 5431 5432 5433 5433 5434 5434 5432 5430 5431 5436
5532 5530 5527 5523 5519 5516 5513 5509 5504 5500 5496 5492 5488 5483 5478 5472 5468 5464 5459 5455 5451 5447 5443 5440 5436 5432 5429 5426 5423 5421 5419 5418 5418 5419 5421 5424 5427 5429 5431 5432 5432 5433 5436
5522 5519 5515 5511 5507 5504 5501 5496 5490 5487 5483 5479 5474 5469 5464 5460 5455 5449 5444 5440 5436 5431 5427 5424 5421 5417 5415 5412 5409 5408 5408 5408 5408 5410 5413 5418 5422 5426 5430 5433 5436 5437 5438
5512 5508 5504 5500 5496 5493 5489 5484 5480 5477 5472 5467 5461 5456 5452 5446 5441 5436 5431 5426 5421 5417 5413 5409 5405 5402 5400 5398 5397 5397 5398 5399 5400 5404 5409 5414 5420 5425 5429 5434 5437 5438 5439
5503 5499 5495 5490 5486 5483 5480 5476 5472 5468 5463 5457 5451 5445 5439 5434 5429 5424 5419 5414 5409 5405 5401 5398 5393 5390 5388 5386 5386 5387 5389 5392 5396 5400 5406 5413 5419 5424 5429 5433 5437 5438 5438
5496 5492 5487 5483 5480 5476 5473 5469 5465 5460 5453 5447 5441 5435 5430 5424 5418 5413 5408 5404 5401 5398 5393 5389 5385 5382 5380 5379 5380 5381 5384 5388 5392 5398 5404 5411 5417 5423 5428 5432 5436 5438 5438
5491 5486 5482 5478 5474 5471 5467 5463 5459 5453 5446 5440 5434 5427 5422 5417 5411 5405 5399 5396 5394 5391 5389 5386 5382 5379 5377 5377 5378 5381 5385 5390 5395 5399 5404 5410 5416 5421 5425 5429 5433 5436 5438